GW5365 Weather Reports


time (UTC)temp
C
wind
direction
speed
KPH
gust
KPH
rain 1hr
cm
rain 24hr
cm
rain mn
cm
humidity
%
barometer
mb
20260507141641 19 180 3.2 3.2 0.33 0.36 0.36 56 1010.2
20260507140640 17 180 8.0 8.0 0.36 0.36 0.36 57 1010.3
20260507135641 16 158 8.0 8.0 0.36 0.36 0.36 66 1010.3
20260507134642 15 135 11.3 11.3 0.36 0.36 0.36 71 1010.5
20260507132640 17 180 11.3 11.3 0.05 0.05 0.05 68 1010.7
20260507131640 20 112 8.0 8.0 0.00 0.00 0.00 66 1010.6
20260507130640 20 90 4.8 4.8 0.00 0.00 0.00 44 1010.2
20260507125641 20 112 8.0 8.0 0.00 0.00 0.00 41 1010.0
20260507124641 20 45 1.6 1.6 0.00 0.00 0.00 43 1010.1
20260507123641 20 270 11.3 11.3 0.00 0.00 0.00 42 1010.2
20260507122640 20 68 8.0 8.0 0.00 0.00 0.00 42 1010.4
20260507121642 20 0 8.0 8.0 0.00 0.00 0.00 41 1010.4
20260507120640 20 270 16.1 16.1 0.00 0.00 0.00 42 1010.6
20260507115642 20 270 8.0 8.0 0.00 0.00 0.00 42 1010.8
20260507114640 20 90 8.0 8.0 0.00 0.00 0.00 44 1010.9
20260507111641 19 270 9.7 9.7 0.00 0.00 0.00 43 1011.2
20260507110641 19 270 8.0 8.0 0.00 0.00 0.00 46 1011.3
20260507105641 18 248 8.0 8.0 0.00 0.00 0.00 46 1011.3
20260507104640 18 248 8.0 8.0 0.00 0.00 0.00 47 1011.4
20260507103641 19 22 9.7 9.7 0.00 0.00 0.00 50 1011.4
20260507101639 17 90 3.2 3.2 0.00 0.00 0.00 53 1011.6
20260507100640 17 112 11.3 11.3 0.00 0.00 0.00 53 1011.6
20260507095640 17 45 0.0 0.0 0.00 0.00 0.00 55 1011.7
20260507094641 17 270 1.6 1.6 0.00 0.00 0.00 54 1011.7
20260507093640 17 270 4.8 4.8 0.00 0.00 0.00 54 1011.7
20260507092642 17 68 3.2 3.2 0.00 0.00 0.00 53 1011.6
20260507090640 15 68 1.6 1.6 0.00 0.00 0.00 56 1011.5
20260507085640 15 68 3.2 3.2 0.00 0.00 0.00 56 1011.6
20260507084640 16 68 6.4 6.4 0.00 0.00 0.00 56 1011.8
20260507083641 15 270 3.2 3.2 0.00 0.00 0.00 56 1011.8
20260507075641 15 270 3.2 3.2 0.00 0.00 0.00 57 1011.6
20260507073641 15 315 8.0 8.0 0.00 0.00 0.00 59 1011.6
20260507072642 15 270 3.2 3.2 0.00 0.00 0.00 62 1011.5
20260507071641 14 248 3.2 3.2 0.00 0.00 0.00 66 1011.5
20260507070640 13 248 0.0 0.0 0.00 0.00 0.00 68 1011.4
20260507065642 13 248 3.2 3.2 0.00 0.00 0.00 70 1011.5
20260507062640 13 270 1.6 1.6 0.00 0.00 0.00 63 1011.0
20260507061641 13 270 6.4 6.4 0.00 0.00 0.00 63 1010.9
20260507060641 12 270 8.0 8.0 0.00 0.00 0.00 65 1010.8
20260507055640 12 248 8.0 8.0 0.00 0.00 0.00 66 1010.8
20260507054640 12 270 11.3 11.3 0.00 0.00 0.00 67 1010.7
20260507053640 12 270 4.8 4.8 0.00 0.00 0.00 67 1010.7
20260507052640 12 292 3.2 3.2 0.00 0.00 0.00 70 1010.6
20260507045640 12 292 4.8 4.8 0.00 0.00 0.00 67 1010.3
20260507044640 12 292 0.0 0.0 0.00 0.00 0.00 68 1010.3
20260507043640 12 292 0.0 0.0 0.00 0.00 0.00 67 1010.2
20260507042640 12 292 3.2 3.2 0.00 0.00 0.00 67 1010.2
20260507041639 12 292 1.6 1.6 0.00 0.00 0.00 67 1010.1
20260507035641 13 292 1.6 1.6 0.00 0.00 0.00 65 1010.0
20260507034640 13 112 4.8 4.8 0.00 0.00 0.00 64 1010.0
20260507033641 13 112 4.8 4.8 0.00 0.00 0.00 64 1010.0
20260507031642 13 112 1.6 1.6 0.00 0.00 0.00 65 1010.0
20260507030641 13 112 4.8 4.8 0.00 0.00 0.00 64 1010.0
20260507025640 13 112 1.6 1.6 0.00 0.00 0.00 61 1010.0
20260507024639 14 135 0.0 0.0 0.00 0.00 0.00 61 1010.0
20260507023640 14 135 4.8 4.8 0.00 0.00 0.00 62 1010.0
20260507021640 15 68 6.4 6.4 0.00 0.00 0.00 62 1010.1
20260507020641 15 68 3.2 3.2 0.00 0.00 0.00 62 1010.0
20260507015640 15 68 4.8 4.8 0.00 0.00 0.00 61 1010.1
20260507014640 15 45 3.2 3.2 0.00 0.00 0.00 58 1010.1
20260507013640 15 90 3.2 3.2 0.00 0.00 0.00 57 1010.1
20260507012640 15 270 4.8 4.8 0.00 0.00 0.00 57 1010.2
20260507011641 15 270 3.2 3.2 0.00 0.00 0.00 51 1010.2
20260507010640 16 270 0.0 0.0 0.00 0.00 0.00 51 1010.2
20260507005640 16 270 3.2 3.2 0.00 0.00 0.00 46 1010.3
20260507004641 16 270 3.2 3.2 0.00 0.00 0.00 45 1010.3
20260507003640 16 270 4.8 4.8 0.00 0.00 0.00 45 1010.2
20260507002641 16 270 0.0 0.0 0.00 0.00 0.00 44 1010.2
20260507001641 17 248 8.0 8.0 0.00 0.00 0.00 43 1010.5
20260507000640 17 292 16.1 16.1 0.00 0.00 0.00 41 1010.6
20260506235640 17 158 11.3 11.3 0.00 0.00 0.00 43 1010.3
20260506233640 17 180 8.0 8.0 0.00 0.00 0.00 42 1010.3
20260506231640 17 180 3.2 3.2 0.00 0.00 0.00 39 1010.2
20260506225640 17 180 6.4 6.4 0.00 0.00 0.00 38 1010.0
20260506224640 17 180 1.6 1.6 0.00 0.00 0.00 38 1010.0
20260506223640 17 180 3.2 3.2 0.00 0.00 0.00 38 1010.0
20260506222641 17 180 4.8 4.8 0.00 0.00 0.00 37 1010.0
20260506221640 17 158 3.2 3.2 0.00 0.00 0.00 36 1010.1
20260506220640 17 180 3.2 3.2 0.00 0.00 0.00 38 1010.1
20260506215639 17 180 4.8 4.8 0.00 0.00 0.00 38 1010.1
20260506214640 17 180 3.2 3.2 0.00 0.00 0.00 38 1010.2
20260506213641 17 202 3.2 3.2 0.00 0.00 0.00 37 1010.2
20260506212640 17 202 4.8 4.8 0.00 0.00 0.00 36 1010.2
20260506211640 18 202 3.2 3.2 0.00 0.00 0.00 35 1010.1
20260506210640 18 225 1.6 1.6 0.00 0.00 0.00 32 1009.9
20260506205641 18 248 0.0 0.0 0.00 0.00 0.00 32 1009.9
20260506204641 18 248 0.0 0.0 0.00 0.00 0.00 33 1009.8
20260506203640 19 248 1.6 1.6 0.00 0.00 0.00 29 1009.8
20260506202641 19 248 4.8 4.8 0.00 0.00 0.00 28 1009.7
20260506201640 19 248 4.8 4.8 0.00 0.00 0.00 28 1009.6
20260506200640 19 248 1.6 1.6 0.00 0.00 0.00 29 1009.5
20260506194641 20 248 3.2 3.2 0.00 0.00 0.00 29 1009.4
20260506193640 20 292 3.2 3.2 0.00 0.00 0.00 30 1009.3
20260506192640 20 270 3.2 3.2 0.00 0.00 0.00 30 1009.2
20260506191639 20 248 4.8 4.8 0.00 0.00 0.00 30 1009.0
20260506185640 21 248 3.2 3.2 0.00 0.00 0.00 30 1009.0
20260506184641 21 248 8.0 8.0 0.00 0.00 0.00 30 1009.0
20260506181640 21 292 9.7 9.7 0.00 0.00 0.00 30 1008.8
20260506180641 21 270 9.7 9.7 0.00 0.00 0.00 31 1009.0
20260506175641 21 270 9.7 9.7 0.00 0.00 0.00 30 1009.0
20260506174641 21 270 8.0 8.0 0.00 0.00 0.00 30 1009.1
20260506173640 21 270 14.5 14.5 0.00 0.00 0.00 31 1009.1
20260506171640 21 270 12.9 12.9 0.00 0.00 0.00 30 1009.2
20260506170641 21 270 14.5 14.5 0.00 0.00 0.00 30 1009.2
20260506165642 21 292 9.7 9.7 0.00 0.00 0.00 31 1009.3
20260506163640 21 315 12.9 12.9 0.00 0.00 0.00 31 1009.2
20260506161640 21 292 9.7 9.7 0.00 0.00 0.00 31 1009.3
20260506160640 21 315 11.3 11.3 0.00 0.00 0.00 31 1009.4
20260506153641 21 45 8.0 8.0 0.00 0.00 0.00 31 1009.5
20260506152640 21 292 12.9 12.9 0.00 0.00 0.00 31 1009.6
20260506151641 21 270 12.9 12.9 0.00 0.00 0.00 31 1009.6
20260506144642 21 270 16.1 16.1 0.00 0.00 0.00 33 1009.9
20260506142641 22 270 12.9 12.9 0.00 0.00 0.00 32 1010.2